Regional Weather Roundup
Issued by NWS

Home | Current Version | Previous Version | Graphics & Text | Print | Product List | Glossary On
Versions: 1 2 3 4 5 6 7 8 9 10 11 12 13 14 15 16 17 18 19 20 21 22 23 24 25 26 27 28 29 30 31 32 33 34 35 36 37 38 39 40 41 42 43 44 45 46 47 48 49 50
000
ASUS43 KIND 191909
RWRIN

WEATHER ROUNDUP FOR INDIANA
NATIONAL WEATHER SERVICE INDIANAPOLIS IN
200 PM EST SUN NOV 19 2017

NOTE: "FAIR" INDICATES FEW OR NO CLOUDS BELOW 12,000 FEET WITH NO
SIGNIFICANT WEATHER AND/OR OBSTRUCTIONS TO VISIBILITY.

* - STATION DOES NOT REPORT WEATHER SUCH AS PRECIPITATION OR FOG.

+ - STATION NOT QUALITY CONTROLLED BY THE NATIONAL WEATHER SERVICE.
    USE DATA WITH CAUTION...ESPECIALLY DEWPOINT AND RELATIVE
    HUMIDITY OBSERVATIONS.

INZ001>003-010>013-019-020-192000-
NORTHWEST INDIANA

CITY           SKY/WX    TMP DP  RH WIND       PRES   REMARKS
KNOX *+        PTSUNNY   34  25  69 W15G22    30.03R WCI  24
LA PORTE +     MOSUNNY   35  21  57 W9G16     30.03R WCI  27
MICHIGAN CITY+ CLOUDY    34  23  64 W15G22    30.04R WCI  24
MONTICELLO +   CLOUDY    31  23  71 W15G21    30.07R WCI  20
RENSSELAER +   PTSUNNY   32  23  69 W17G24    30.07S WCI  21
VALPARAISO     MOSUNNY   36  22  56 W15G26    30.04R WCI  27

$$

LMZ046-743>745-192000-
SOUTHERN LAKE MICHIGAN

STATION/POSITION TIME  TEMP    WIND        PRES    WAVE
                       AIR SEA DIR/SP/G            HT
                 (UTC) (F)     (DEG/KT/KT) (MB)    (FT)
BURNS HARBOR     1840   34     290/ 14/ 21 1017.6S
MICHIGAN CITY    1840   32     250/ 21/ 25   N/A

$$

INZ004-005-014>016-021>024-192000-
NORTH CENTRAL INDIANA

CITY           SKY/WX    TMP DP  RH WIND       PRES   REMARKS
ELKHART        CLOUDY    32  23  69 W14G21    29.98S WCI  22
GOSHEN         CLOUDY    32  22  66 W20G28    29.99R WCI  20
LOGANSPORT +   CLOUDY    32  23  69 W14G24    30.06R WCI  22
PERU/GRISSOM   CLOUDY    32  24  71 W17       30.03R WCI  21
ROCHESTER +    CLOUDY    36  25  64 W15       30.02S WCI  26
SOUTH BEND     CLOUDY    31  23  72 W18G25    30.01R WCI  19
WARSAW +       CLOUDY    32  25  74 W16G22    30.00R WCI  21

$$

INZ006>009-017-018-025>027-192000-
NORTHEAST INDIANA

CITY           SKY/WX    TMP DP  RH WIND       PRES   REMARKS
AUBURN +       CLOUDY    34  23  64 W16G24    29.97R WCI  23
FORT WAYNE     CLOUDY    35  27  72 W20G26    29.98R WCI  24
HUNTINGTON +   CLOUDY    33  24  69 W15       30.00R WCI  23
KENDALLVILLE + CLOUDY    33  24  71 NW8G17    29.96R WCI  25

$$

INZ028-029-035-036-043>045-051>053-192000-
WEST CENTRAL INDIANA

CITY           SKY/WX    TMP DP  RH WIND       PRES   REMARKS
CRAWFORDSVL +  CLOUDY    28  23  82 W15       30.08R WCI  16
GREENCASTLE +  CLOUDY    32  23  69 W9        30.11R WCI  24
LAFAYETTE      CLOUDY    30  23  75 W15G23    30.10R WCI  19
TERRE HAUTE    PTSUNNY   35  23  61 NW14      30.14R WCI  26

$$

INZ030>032-037>040-046>048-054>057-064-065-192000-
CENTRAL INDIANA

CITY           SKY/WX    TMP DP  RH WIND       PRES   REMARKS
CP ATTERBURY + MOSUNNY   37  25  60 NW13      30.08R WCI  29
COLUMBUS       PTSUNNY   37  25  60 W14G21    30.07S WCI  29
FISHERS *+     CLOUDY    30  27  86 W13       30.08R WCI  20
FRANKFORT +    CLOUDY    32  26  78 W17       30.09R WCI  21
GREENWOOD *+   CLOUDY    37  26  66 W12G17    30.08R WCI  29
INDIANAPOLIS   PTSUNNY   32  22  66 W20       30.09R WCI  20
-EAGLE CREEK   CLOUDY    31  23  72 W13       30.08R WCI  21
KOKOMO +       CLOUDY    31  24  75 W18       30.05R WCI  19
MARION +       CLOUDY    31  24  77 W20G26    30.04R WCI  19
MT COMFORT *+  CLOUDY    32  27  80 W20       30.07R WCI  20
SHELBYVILLE    CLOUDY    35  23  61 W15       30.06R WCI  25
ZIONSVILLE +   CLOUDY    29  23  78 W18G24    30.08R WCI  16

$$

INZ033-034-041-042-049-050-058-059-192000-
EAST CENTRAL INDIANA

CITY           SKY/WX    TMP DP  RH WIND       PRES   REMARKS
MUNCIE         CLOUDY    33  24  69 W20G26    30.02R WCI  21
RICHMOND +     CLOUDY    34  27  75 W20       29.99S WCI  22

$$

INZ060-061-067>069-081>083-085>088-192000-
SOUTHWEST INDIANA

CITY           SKY/WX    TMP DP  RH WIND       PRES   REMARKS
EVANSVILLE     SUNNY     40  24  53 W12G20    30.16S WCI  33
HUNTINGBURG +  MOSUNNY   40  26  57 W12       30.14R WCI  33
WASHINGTON +   MOSUNNY   37  22  54 W14       30.15R WCI  29

$$

INZ062-063-066-070>080-084-089>092-192000-
SOUTH CENTRAL AND SOUTHEAST INDIANA

CITY           SKY/WX    TMP DP  RH WIND       PRES   REMARKS
BEDFORD +      MOSUNNY   36  23  60 W8G17     30.10R WCI  29
BLOOMINGTON    PTSUNNY   35  24  64 W12       30.10R WCI  27
MADISON *+     CLOUDY    37  27  65 W8G16     30.07F WCI  31
NORTH VERNON + CLOUDY    36  25  64 W15       30.06F WCI  26
SEYMOUR +      MOSUNNY   41  27  56 W9G15     30.08S

$$




USA.gov is the U.S. government's official web portal to all federal, state and local government web resources and services.